Weather History for Fort Myers, FL

Change the Weather History Date:

Thursday, October 24, 2013

  Actual Average Record
Temperature  
Mean Temperature 71 °F 76 °F  
Max Temperature 76 °F 85 °F 93 °F (1919)
Min Temperature 65 °F 67 °F 50 °F (1937)
Degree Days  
Heating Degree Days 0 0  
Month to date heating degree days 0 0  
Since 1 July heating degree days 0 0  
Cooling Degree Days 6 11  
Month to date cooling degree days 351 328  
Year to date cooling degree days 3556 3574  
Growing Degree Days 20 (Base 50)    
Moisture  
Dew Point 56 °F    
Average Humidity 63    
Maximum Humidity 81    
Minimum Humidity 53    
Precipitation  
Precipitation 0.00 in 0.08 in 4.69 in (2005)
Month to date precipitation 1.34 2.38  
Year to date precipitation 51.86 51.76  
Sea Level Pressure  
Sea Level Pressure 30.07 in    
Wind  
Wind Speed 11 mph (NE)    
Max Wind Speed 17 mph    
Max Gust Speed 22 mph    
Visibility 10 miles    
Events      
T = Trace of Precipitation, MM = Missing Value Source: NWS Daily Summary

Daily Weather History Graph

Daily Weather History Graph

Search for Another Location

Airport:

Trip Planner

Search our weather history database for the weather conditions in past years. The results will help you decide how hot, cold, wet, or windy it might be!

Date:

Astronomy

Oct. 24, 2013 Rise Set
Actual Time 7:31 AM EDT 6:50 PM EDT
Civil Twilight 7:08 AM EDT 7:14 PM EDT
Nautical Twilight 6:41 AM EDT 7:41 PM EDT
Astronomical Twilight 6:14 AM EDT 8:08 PM EDT
Moon 11:25 PM EDT (10/24) 12:20 PM EDT (10/24)
Length of Visible Light 12h 06m
Length of Day
11h 18m
Waning Gibbous, 71% of the Moon is Illuminated
Oct 24
Waning Gibbous
Oct 26
Last Quarter
Nov 3
New
Nov 10
First Quarter
Nov 17
Full

Hourly Weather History & Observations

Time (EDT) Temp. Dew Point Humidity Pressure Visibility Wind Dir Wind Speed Gust Speed Precip Events Conditions
12:53 AM 70.0 °F 54.0 °F 57% 30.00 in 10.0 mi NNE 11.5 mph - N/A   Scattered Clouds
1:53 AM 69.1 °F 55.0 °F 61% 30.00 in 10.0 mi NNE 10.4 mph - N/A   Clear
2:53 AM 69.1 °F 55.0 °F 61% 30.01 in 10.0 mi NNE 10.4 mph - N/A   Mostly Cloudy
3:53 AM 69.1 °F 54.0 °F 58% 29.99 in 10.0 mi NE 11.5 mph 19.6 mph N/A   Partly Cloudy
4:53 AM 68.0 °F 54.0 °F 61% 30.01 in 10.0 mi NNE 12.7 mph - N/A   Partly Cloudy
5:53 AM 68.0 °F 53.1 °F 59% 30.01 in 10.0 mi NNE 12.7 mph - N/A   Mostly Cloudy
6:53 AM 66.9 °F 51.1 °F 57% 30.03 in 10.0 mi NNE 12.7 mph - N/A   Mostly Cloudy
7:53 AM 66.9 °F 50.0 °F 54% 30.04 in 10.0 mi NNE 13.8 mph - N/A   Partly Cloudy
8:53 AM 66.9 °F 51.1 °F 57% 30.07 in 10.0 mi NE 11.5 mph - N/A   Partly Cloudy
9:53 AM 68.0 °F 51.1 °F 55% 30.10 in 10.0 mi NE 11.5 mph - N/A   Clear
10:53 AM 69.1 °F 53.1 °F 57% 30.12 in 10.0 mi NNE 9.2 mph - N/A   Clear
11:53 AM 71.1 °F 54.0 °F 55% 30.12 in 10.0 mi NE 8.1 mph - N/A   Clear
12:53 PM 72.0 °F 57.0 °F 59% 30.11 in 10.0 mi NE 10.4 mph - N/A   Clear
1:53 PM 73.0 °F 57.0 °F 57% 30.09 in 10.0 mi NE 10.4 mph - N/A   Scattered Clouds
2:53 PM 75.0 °F 59.0 °F 57% 30.07 in 10.0 mi NE 9.2 mph - N/A   Clear
3:53 PM 75.0 °F 60.1 °F 60% 30.06 in 10.0 mi NE 15.0 mph - N/A   Clear
4:53 PM 73.9 °F 60.1 °F 62% 30.06 in 10.0 mi ENE 13.8 mph 18.4 mph N/A   Partly Cloudy
5:53 PM 72.0 °F 61.0 °F 68% 30.07 in 10.0 mi ENE 9.2 mph - N/A   Mostly Cloudy
6:53 PM 71.1 °F 60.1 °F 68% 30.09 in 10.0 mi NE 8.1 mph - N/A   Clear
7:53 PM 70.0 °F 61.0 °F 73% 30.09 in 10.0 mi NE 9.2 mph - N/A   Clear
8:53 PM 69.1 °F 60.1 °F 73% 30.10 in 10.0 mi NE 9.2 mph - N/A   Clear
9:53 PM 68.0 °F 60.1 °F 76% 30.12 in 10.0 mi NE 8.1 mph - N/A   Clear
10:53 PM 66.9 °F 60.1 °F 79% 30.14 in 10.0 mi NE 9.2 mph - N/A   Clear
11:53 PM 66.0 °F 59.0 °F 78% 30.14 in 10.0 mi NE 6.9 mph - N/A   Clear